sat.trackr.live / text

‹ back to catalog

STARLINK-36339

NORAD 67340 · 2026-003G

PAYLOAD ACTIVE UNKNOWN

§ Identity

Operator
Country
US
Launch date
2026-01-09
Launch site
AFETR
Launch vehicle
Mass (kg)
RCS (m²)

Purposes: comms

External: N2YO · Heavens-Above · Gunter

§ Orbital elements

Epoch: 2026-09-19T13:24:14.088096Z

Period
94.27 min
Inclination
42.9997°
Eccentricity
0.0001368
Mean motion
15.27585237 rev/d
Perigee alt
482.1 km
Apogee alt
484.0 km
Semi-major
6,861.2 km
B*
3.6610e-4
RAAN
212.1934°
Arg perigee
271.7477°
Mean anomaly
88.3218°
Rev number
3,847

§ Raw data

STARLINK-363391 67340U 26003G   26262.55849639  .00009827  00000+0  36610-3 0  99922 67340  42.9997 212.1934 0001368 271.7477  88.3218 15.27585237 38474

JSON: /api/v1/satellites/67340 · /tle

For live sub-satellite position, see the globe view (requires WebGL).

§ Visibility from observer

Set your observer location to see the next 7 days of passes ≥ 10°. The values pass through the URL so the page stays shareable.

No JS? Fill the form by hand. The geolocation button needs JavaScript.